Hourly Data Report for October 22, 2016

All times are specified in Local Standard Time (LST). Add 1 hour to adjust for Daylight Saving Time where and when it is observed.

SAINT JOHN A
NEW BRUNSWICK

45°18'58.000" N
65°53'24.000" W
108.80 m
8104901
71609
YSJ

Download Data

Hourly Data (October 2016)
Hourly Data Report for October 22, 2016
Temp Definition
°C
Dew Point Temp Definition
°C
Rel Hum Definition
%
Wind Dir Definition
10's deg

Wind Spd Definition
km/h
Visibility Definition
km
Stn Press Definition
kPa
Hmdx Definition


Wind Chill Definition


Weather Definition


TIME
00:00 Legend Double Dagger 16.2 16.2 100 11 18 4.8 99.21     Drizzle,Fog
01:00 Legend Double Dagger 16.9 16.9 100 12 22 4.8 99.06     Fog
02:00 Legend Double Dagger 16.8 16.8 100 10 29 12.9 98.87     Rain,Fog
03:00 Legend Double Dagger 16.6 16.6 100 10 27 9.7 98.72     Rain,Fog
04:00 Legend Double Dagger 16.3 16.3 100 9 26 6.4 98.52     Rain,Fog
05:00 Legend Double Dagger 15.8 15.8 100 10 28 6.4 98.33     Rain,Fog
06:00 Legend Double Dagger 15.7 15.7 100 10 33 9.7 98.18     Rain,Fog
07:00 Legend Double Dagger 16.0 16.0 100 10 34 8.1 98.04     Rain,Fog
08:00 Legend Double Dagger 16.8 16.8 100 10 24 4.8 97.99     Rain,Fog
09:00 Legend Double Dagger 17.6 17.6 100 12 23 8.1 97.92     Rain,Fog
10:00 Legend Double Dagger 18.3 18.3 100 13 26 4.8 97.85     Moderate Rain,Fog
11:00 Legend Double Dagger 18.5 18.5 100 16 21 1.2 97.86     Rain,Fog
12:00 Legend Double Dagger 18.1 18.1 100 16 8 3.2 97.82     Heavy Rain,Fog
13:00 Legend Double Dagger 19.8 19.8 100 18 12 3.2 97.71     Fog
14:00 Legend Double Dagger 19.0 19.0 100 13 9 3.2 97.61     Rain,Fog
15:00 Legend Double Dagger 19.3 19.3 100 12 17 3.2 97.47     Drizzle,Fog
16:00 Legend Double Dagger 19.4 19.4 100 16 19 24.1 97.42     LegendNANA
17:00 Legend Double Dagger 18.9 18.9 100 15 14 24.1 97.43     Mostly Cloudy
18:00 Legend Double Dagger 18.4 18.4 100 18 28 4.8 97.49     Rain,Fog
19:00 Legend Double Dagger 16.6 16.6 100 19 33 0.8 97.59     Fog
20:00 Legend Double Dagger 15.4 15.4 100 20 26 4.8 97.66     Fog
21:00 Legend Double Dagger 15.0 15.0 100 19 44 0.8 97.70     Fog
22:00 Legend Double Dagger 13.6 13.6 100 19 40 6.4 97.78     Fog
23:00 Legend Double Dagger 13.1 12.2 94 19 28 9.7 97.80     Fog

Notes on Data Quality.

Legend

  • E = Estimated
  • M = Missing
  • NA = Not Available
  • ‡ = Partner data that is not subject to review by the National Climate Archives
Date modified: